Small Craft Advisory
 click here for details
SBYC BurgeeSandy Bay Yacht Club
Weather Center


NOAA NWS Hourly Roundups by Site

NOAA NWS Hourly Roundups by Site

Regional Weather Roundup for Boston, MA

To Select Another Site Choose from List
Select Site:  

009
ASUS41 KBOX 191610
RWRBOX

REGIONAL WEATHER ROUNDUP
NATIONAL WEATHER SERVICE BOSTON/NORTON MA
1200 PM EDT THU SEP 19 2019

NOTE:  "FAIR" INDICATES FEW OR NO CLOUDS BELOW 12,000 FEET WITH NO
SIGNIFICANT WEATHER AND/OR OBSTRUCTIONS TO VISIBILITY.

MAZALL-191700-
EASTERN MASSACHUSETTS

CITY           SKY/WX    TMP DP  RH WIND       PRES   REMARKS
BOSTON         FAIR      64  41  42 E8        30.35S
BEVERLY        FAIR      64  41  42 N8        30.34S
LAWRENCE       FAIR      64  39  39 NE5       30.36F
BEDFORD        FAIR      66  40  38 VRB6      30.34F
BLUE HILL        N/A     61  39  44 CALM      30.34S
NORWOOD        FAIR      66  40  38 CALM      30.34S
MARSHFIELD     FAIR      63  48  59 NE8       30.34S
PLYMOUTH       FAIR      61  48  62 N10       30.34F
TAUNTON        FAIR      65  46  50 CALM      30.33F
NEW BEDFORD    FAIR      64  46  52 NE7       30.32F
$$

MAZALL-191700-
CAPE COD AND THE ISLANDS

CITY           SKY/WX    TMP DP  RH WIND       PRES   REMARKS
FALMOUTH       NOT AVBL
HYANNIS        FAIR      65  46  50 N12G21    30.30F
CHATHAM        FAIR      63  45  51 NE9G17    30.32F
PROVINCETOWN   FAIR      63  48  58 NE10      30.34S
NANTUCKET      FAIR      62  46  55 NE18      30.30F
MARTHAS VNYRD  FAIR      65  44  46 NE12G21   30.31F
$$

MAZALL-191700-
CENTRAL AND WESTERN MASSACHUSETTS

CITY           SKY/WX    TMP DP  RH WIND       PRES   REMARKS
WORCESTER      FAIR      60  34  37 VRB3      30.35F
FITCHBURG      FAIR      63  36  36 E5        30.35F
ORANGE         FAIR      64  38  38 CALM      30.36F
SPRINGFIELD    SUNNY     63  39  41 N5        30.34F
WESTFIELD      FAIR      63  36  36 VRB5      30.36F
NORTH ADAMS    FAIR      61  41  47 VRB3      30.35F
PITTSFIELD     FAIR      61  39  44 W3        30.34F
$$

RIZALL-191700-
RHODE ISLAND

CITY           SKY/WX    TMP DP  RH WIND       PRES   REMARKS
PROVIDENCE     FAIR      65  44  46 N5        30.34F
NEWPORT        FAIR      64  46  52 N8        30.33F
BLOCK ISLAND   FAIR     N/A N/A N/A NE9       30.34F
SMITHFIELD     FAIR      61  44  53 NW3       30.35S
WESTERLY       FAIR      67  46  47 NW7       30.34F
$$

CTZALL-191700-
CONNECTICUT

CITY           SKY/WX    TMP DP  RH WIND       PRES   REMARKS
BRADLEY INTL   FAIR      62  41  46 NE5       30.36F
HARTFORD       FAIR      62  40  44 VRB5      30.35F
BRIDGEPORT     FAIR      62  44  51 E7        30.36F
DANBURY        FAIR      63  38  39 N8        30.37F
GROTON         FAIR      64  47  53 VRB6      30.34F
NEW HAVEN      FAIR      66  44  45 NE8       30.36F
CHESTER        FAIR      64  43  45 CALM      30.35F
MERIDEN        FAIR      62  40  44 CALM      30.35F
WILLIMANTIC    FAIR      63  42  46 NE3       30.35F
OXFORD         FAIR      61  40  45 N5        30.36F
$$

MEZ002-015-021-024-NHZ003-005-008-011-012-014-VTZ005-008-191700-
NORTHERN NEW ENGLAND

CITY           SKY/WX    TMP DP  RH WIND       PRES   REMARKS
PORTLAND ME    FAIR      63  37  38 CALM      30.33F
BANGOR ME      FAIR      63  38  39 N5        30.32F
CONCORD NH     FAIR      63  40  42 VRB5      30.35F
MANCHESTER NH  FAIR      65  37  35 NE7       30.33F
NASHUA NH      FAIR      64  39  39 CALM      30.35F
PORTSMOUTH NH  SUNNY     64  36  35 N5        30.33
JAFFREY NH     FAIR      62  36  37 VRB3      30.35F
KEENE NH       FAIR      60  41  49 VRB5      30.36F
BURLINGTON VT  FAIR      64  42  44 S8        30.33F
MT. WASHINGTON MOSUNNY   46  -4  12 NE6         N/A
$$

NYZ052-076-191700-
EASTERN NEW YORK

CITY           SKY/WX    TMP DP  RH WIND       PRES   REMARKS
ALBANY         FAIR      63  40  42 S6        30.36F
NEW YORK CITY  FAIR      63  42  46 NE9       30.36F
$$

ANZALL-191700-
MARINE OBSERVATIONS

STATION/POSITION TIME  TEMP    WIND        PRES    VSBY  WAVE
                       AIR SEA DIR/SP/G                  HT/PER
                 (UTC) (F)     (DEG/KT/KT) (MB)    (MI)  (FT/S)
BOSTON BUOY      1550   58 64   20/  8/ 12 1026.5F         4/ 8
BUZZARDS BAY     1500   58      30/ 13/ 15 1027.5F
NANTUCKET SOUND  1550   60 67   40/ 12/ 16   N/A           2/ 3
MASS BAY-STELLWA 1504   58 63   20/ 10/ 14 1027.6F  1 7/8  4/ 6
ISLE OF SHOALS   1500   57      10/  7/  8 1027.3F
S OF BLOCK IS    1600      67                N/A           5/10
$$

......................KEY.........................
  SKY/WX - SKY CONDITION/PRESENT WEATHER
  TMP    - TEMPERATURE IN FAHRENHEIT
  DWPT   - DEWPOINT IN FAHRENHEIT
  RH     - RELATIVE HUMIDITY IN PERCENT
  WIND   - DIRECTION AND SPEED IN MPH
  PRES   - MEAN SEA LEVEL PRESSURE IN INCHES OF HG
  WCI    - WIND CHILL INDEX
  VSB    - VISIBILITY IN MILES
  HX     - HEAT INDEX
  TC     - TEMPERATURE IN CELSIUS
  VRB    - VARIABLE WIND DIRECTION
  N/A    - NOT AVAILABLE



 

View Past Reports for Boston, MA.

Products Courtesy of NOAA-NWS
NWS Information Parsing Script by Ken True at Saratoga Weather - Script by SE Lincoln Weather.

 



home

Copyright © Sandy Bay Yacht Club. All rights reserved.